Flag for U.S.A. Weather past 2 weeks in St. George, Utah, U.S.A.

Now
90 °F

Sunny.


Feels Like: 88 °F
Forecast: 75 / 100 °F
Wind: 6 mph from Northwest

Location: Saint George

Current Time: Jul 30, 2014 at 12:14:33 PM

Latest Report: Jul 30, 2014 at 11:35 AM


Visibility: 10 mi

Pressure: 30.06 "Hg

Humidity: 31%

Dew point: 55 °F

Location of St. GeorgeLocation

Historic Weather in St. George — Graph

°F

St. George temperature yesterday

Maximum temperature yesterday: 99 °F (at 4:35 PM)
Minimum temperature yesterday: 73 °F (at 6:55 AM)
Average temperature yesterday: 86 °F

Past Weeks' High & Low Weather Summary

 TemperatureHumidityPressure
High108 °F (Jul 23, 3:55 PM)54% (Jul 29, 3:35 AM)30.21 "Hg (Jul 29, 3:35 AM)
Low70 °F (Jul 22, 7:15 AM)9% (Jul 23, 2:55 PM)29.82 "Hg (Jul 17, 6:35 PM)
Average89 °F25%30.00 "Hg
* Reported Jul 15 11:15 AM — Jul 30 11:15 AM, St. George, Weather by CustomWeather, © 2014

Note: Actual official high and low records may vary slightly from our data, if they occured in-between our weather recording intervals... More about our weather records

Advertising

St. George weather history for previous 24 hours

 ConditionsComfort  
Time TempWeatherWind HumidityBarometerVisibility
11:15 AM
Jul 30
90 °FSunny.9 mph31%30.06 "Hg10 mi
10:55 AM90 °FSunny.7 mph31%30.07 "Hg10 mi
10:35 AM88 °FSunny.No wind31%30.07 "Hg10 mi
10:15 AM86 °FSunny.6 mph33%30.07 "Hg10 mi
9:55 AM84 °FSunny.3 mph35%30.08 "Hg10 mi
9:35 AM84 °FSunny.3 mph35%30.08 "Hg10 mi
9:15 AM84 °FSunny.6 mph37%30.08 "Hg10 mi
8:55 AM82 °FSunny.5 mph40%30.08 "Hg10 mi
8:35 AM82 °FSunny.6 mph37%30.08 "Hg10 mi
8:15 AM81 °FSunny.7 mph39%30.07 "Hg10 mi
7:55 AM79 °FSunny.9 mph42%30.07 "Hg10 mi
7:35 AM79 °FClear.5 mph42%30.06 "Hg10 mi
7:15 AM77 °FClear.7 mph44%30.06 "Hg10 mi
6:55 AM75 °FClear.6 mph47%30.05 "Hg10 mi
6:35 AM77 °FClear.6 mph44%30.04 "Hg10 mi
6:15 AM75 °FClear.3 mph47%30.04 "Hg10 mi
5:55 AM75 °FClear.6 mph47%30.03 "Hg10 mi
5:35 AM77 °FClear.7 mph42%30.03 "Hg10 mi
5:15 AM77 °FClear.7 mph44%30.03 "Hg10 mi
4:55 AM77 °FClear.8 mph42%30.03 "Hg10 mi
4:35 AM79 °FClear.6 mph39%30.02 "Hg10 mi
4:15 AM79 °FClear.7 mph39%30.02 "Hg10 mi
3:55 AM81 °FClear.6 mph42%30.02 "Hg10 mi
3:35 AM81 °FClear.No wind37%30.02 "Hg10 mi
2:55 AM81 °FClear.3 mph37%30.02 "Hg10 mi
2:35 AM82 °FClear.No wind37%30.03 "Hg10 mi
2:15 AM84 °FClear.5 mph37%30.03 "Hg10 mi
1:55 AM84 °FClear.6 mph37%30.03 "Hg10 mi
1:35 AM84 °FClear.6 mph37%30.03 "Hg10 mi
1:15 AM84 °FClear.3 mph35%30.03 "Hg10 mi
12:55 AM84 °FClear.6 mph35%30.03 "Hg10 mi
12:35 AM84 °FClear.6 mph35%30.03 "Hg10 mi
12:15 AM84 °FClear.3 mph35%30.03 "Hg10 mi
11:55 PM
Jul 29
86 °FClear.5 mph33%30.02 "Hg10 mi
11:35 PM86 °FClear.5 mph33%30.02 "Hg10 mi
11:15 PM88 °FClear.8 mph31%30.02 "Hg10 mi
10:55 PM90 °FClear.3 mph29%30.01 "Hg10 mi
10:35 PM88 °FClear.7 mph31%30.01 "Hg10 mi
10:15 PM90 °FClear.3 mph29%30.00 "Hg10 mi
9:55 PM91 °FPassing clouds.7 mph28%30.00 "Hg10 mi
9:35 PM91 °FPassing clouds.8 mph28%29.99 "Hg10 mi
8:55 PM91 °FPassing clouds.7 mph28%29.98 "Hg10 mi
8:35 PM93 °FPassing clouds.10 mph26%29.97 "Hg10 mi
8:15 PM93 °FSunny.9 mph26%29.97 "Hg10 mi
7:55 PM93 °FSunny.14 mph24%29.97 "Hg10 mi
7:35 PM93 °FSunny.12 mph24%29.97 "Hg10 mi
7:15 PM95 °FSunny.16 mph25%29.97 "Hg10 mi
6:55 PM97 °FSunny.16 mph23%29.97 "Hg10 mi
6:35 PM97 °FSunny.17 mph23%29.97 "Hg10 mi
6:15 PM97 °FSunny.17 mph23%29.97 "Hg10 mi
5:55 PM97 °FSunny.16 mph22%29.97 "Hg10 mi
5:35 PM97 °FSunny.16 mph23%29.98 "Hg10 mi
5:15 PM97 °FSunny.21 mph23%29.98 "Hg10 mi
4:55 PM97 °FSunny.16 mph23%29.99 "Hg10 mi
4:35 PM99 °FSunny.14 mph22%30.00 "Hg10 mi
4:15 PM97 °FSunny.7 mph25%30.01 "Hg10 mi
3:55 PM97 °FSunny.7 mph23%30.02 "Hg10 mi
3:35 PM97 °FSunny.12 mph23%30.02 "Hg10 mi
3:15 PM93 °FSunny.6 mph26%30.03 "Hg10 mi
2:55 PM97 °FSunny.14 mph23%30.03 "Hg10 mi
2:35 PM95 °FSunny.16 mph25%30.04 "Hg10 mi
2:15 PM95 °FSunny.12 mph25%30.05 "Hg10 mi
1:55 PM93 °FSunny.9 mph26%30.06 "Hg10 mi
1:35 PM93 °FSunny.14 mph26%30.06 "Hg10 mi
1:15 PM91 °FSunny.12 mph28%30.07 "Hg10 mi
12:55 PM91 °FSunny.9 mph28%30.08 "Hg10 mi
12:35 PM91 °FSunny.10 mph28%30.09 "Hg10 mi
12:15 PM90 °FSunny.6 mph29%30.09 "Hg10 mi
Weather by CustomWeather, © 2014

See weather overviewHow to use our weather pages